カタログに戻る

STARLINK-32939

運用中通信VLEO
NORAD 63149·PAYLOAD·🇺🇸 United States

打ち上げ Mar 3, 2025 から Cape Canaveral Space Force Station

Loading…

次のパス (今後24時間)

TLE

最新Source: CelesTrak SupGP

元期: Sep 14, 2026, 22:27 UTC

1 63149C 25043T   26257.93590278  .00025538  00000+0  92514-3 0  2575
2 63149  43.0015  27.2706 0001600 280.2870 213.8315 15.27560569    16

AllMySatでSTARLINK-32939をリアルタイム追跡

Download on the App Store